Home   Weather   Gurdaspur   Past weeks

Flag for India Past Weather in Gurdaspur, Punjab, India — Yesterday and Last 2 Weeks

66 °F


Feels Like: 66 °F
Forecast: 63 / 91 °F
Wind: No wind

Location: Amritsar Airport

Current Time: Oct 22, 2016 at 1:47:18 AM

Latest Report: Oct 22, 2016 at 1:00 AM

Visibility: 1 mi

Pressure: 29.83 "Hg

Humidity: 100%

Dew Point: 66 °F

Location of GurdaspurLocation

Past Weather in Gurdaspur — Graph


Gurdaspur Temperature Yesterday

Maximum temperature yesterday: 86 °F (at 12:00 PM)
Minimum temperature yesterday: 64 °F (at 7:00 AM)
Average temperature yesterday: 72 °F

High & Low Weather Summary for the Past Weeks

High93 °F (Oct 12, 2:30 PM)100% (Oct 7, 12:30 AM)29.95 "Hg (Oct 7, 12:30 AM)
Low63 °F (Oct 14, 6:30 AM)23% (Oct 18, 3:30 PM)29.68 "Hg (Oct 9, 3:30 PM)
Average77 °F74%29.80 "Hg
* Reported Oct 7 12:30 AM — Oct 22 12:30 AM, Gurdaspur, Weather by CustomWeather, © 2016

Note: Actual official high and low records may vary slightly from our data, if they occured in-between our weather recording intervals... More about our weather records


Gurdaspur Weather History for the Previous 24 Hours

Scroll right to see more
Time TempWeatherWind HumidityBarometerVisibility
12:30 AM
Sat, Oct 22
66 °FFog.No wind100%29.83 "Hg1 mi
12:00 AM66 °FFog.No wind100%29.83 "Hg1 mi
11:30 PM
Fri, Oct 21
68 °FFog.No wind100%29.83 "Hg1 mi
11:00 PM70 °FFog.No wind100%29.83 "Hg1 mi
10:30 PM68 °FFog.No wind100%29.83 "Hg1 mi
10:00 PM70 °FFog.No wind100%29.83 "Hg1 mi
9:30 PM72 °FFog.No wind100%29.83 "Hg1 mi
9:00 PM72 °FFog.No wind100%29.83 "Hg1 mi
8:30 PM72 °FFog.No wind100%29.83 "Hg1 mi
8:00 PM72 °FFog.No wind88%29.80 "Hg1 mi
7:30 PM73 °FFog.No wind78%29.80 "Hg1 mi
7:00 PM77 °FPassing clouds.No wind69%29.80 "Hg1 mi
6:30 PM77 °FPassing clouds.No wind69%29.80 "Hg1 mi
6:00 PM79 °FScattered clouds.No wind58%29.77 "Hg1 mi
5:30 PM82 °FScattered clouds.2 mph51%29.77 "Hg1 mi
5:00 PM84 °FScattered clouds.2 mph48%29.77 "Hg1 mi
4:00 PM86 °FScattered clouds.2 mph46%29.77 "Hg2 mi
12:30 PM86 °FHaze.No wind46%29.83 "Hg1 mi
12:00 PM86 °FScattered clouds.3 mph49%29.83 "Hg1 mi
11:30 AM82 °FScattered clouds.3 mph55%29.86 "Hg1 mi
11:00 AM82 °FHaze.3 mph55%29.86 "Hg1 mi
10:30 AM81 °FHaze.2 mph58%29.86 "Hg1 mi
9:30 AM75 °FFog.No wind83%29.86 "Hg1 mi
9:00 AM72 °FFog.No wind100%29.83 "Hg1 mi
8:30 AM68 °FFog.No wind100%29.83 "Hg1 mi
8:00 AM68 °FFog.No wind100%29.83 "Hg1 mi
7:30 AM66 °FFog.No wind100%29.80 "Hg1 mi
7:00 AM64 °FFog.No wind100%29.80 "Hg1 mi
6:30 AM66 °FFog.No wind100%29.80 "Hg1 mi
6:00 AM66 °FFog.No wind100%29.77 "Hg1 mi
5:30 AM66 °FFog.No wind100%29.77 "Hg1 mi
5:00 AM66 °FFog.2 mph100%29.77 "Hg1 mi
4:30 AM66 °FFog.No wind100%29.74 "Hg1 mi
4:00 AM68 °FFog.3 mph100%29.74 "Hg1 mi
3:30 AM66 °FFog.No wind100%29.74 "Hg1 mi
3:00 AM68 °FFog.No wind100%29.77 "Hg1 mi
2:30 AM68 °FFog.No wind100%29.77 "Hg1 mi
2:00 AM68 °FFog.No wind100%29.77 "Hg1 mi
1:30 AM70 °FFog.No wind88%29.77 "Hg1 mi
1:00 AM70 °FFog.No wind88%29.77 "Hg1 mi
Weather by CustomWeather, © 2016

See weather overviewHow to use our weather pages